Time,TemperatureF,DewpointF,PressureIn,WindDirection,WindDirectionDegrees,WindSpeedMPH,WindSpeedGustMPH,Humidity,HourlyPrecipIn,Conditions,Clouds,dailyrainin,SoftwareType,DateUTC
2013-04-23 00:01:00,70.7,69.0,30.08,WNW,292,2.6,3.5,94,0.00,,,0.00,Rainwise IP-100,2013-04-23 04:01:00,
2013-04-23 00:06:00,70.6,69.0,30.08,WNW,292,2.3,2.6,94,0.00,,,0.00,Rainwise IP-100,2013-04-23 04:06:00,
2013-04-23 00:11:00,70.6,69.0,30.08,WNW,292,0.0,3.3,95,0.00,,,0.00,Rainwise IP-100,2013-04-23 04:11:00,
2013-04-23 00:16:00,70.7,69.0,30.08,WNW,292,1.6,2.8,95,0.00,,,0.00,Rainwise IP-100,2013-04-23 04:16:00,
2013-04-23 00:21:00,70.6,69.0,30.08,WNW,292,1.6,4.4,95,0.00,,,0.00,Rainwise IP-100,2013-04-23 04:21:00,
2013-04-23 00:26:00,70.6,69.0,30.08,WNW,292,3.5,3.5,95,0.00,,,0.00,Rainwise IP-100,2013-04-23 04:26:00,
2013-04-23 00:31:00,70.6,69.0,30.08,WNW,292,2.8,4.7,95,0.00,,,0.00,Rainwise IP-100,2013-04-23 04:31:00,
2013-04-23 00:36:00,70.5,69.0,30.07,NNW,337,2.1,3.5,95,0.00,,,0.00,Rainwise IP-100,2013-04-23 04:36:00,
2013-04-23 00:42:00,70.4,69.0,30.08,NNW,337,2.3,4.0,95,0.00,,,0.00,Rainwise IP-100,2013-04-23 04:42:00,
2013-04-23 00:47:00,70.3,69.0,30.07,NNW,337,1.4,3.7,95,0.00,,,0.00,Rainwise IP-100,2013-04-23 04:47:00,
2013-04-23 00:52:00,70.3,69.0,30.07,NNW,337,2.1,3.0,95,0.00,,,0.00,Rainwise IP-100,2013-04-23 04:52:00,
2013-04-23 00:57:00,70.3,69.0,30.08,NNW,337,2.3,2.6,95,0.00,,,0.00,Rainwise IP-100,2013-04-23 04:57:00,
2013-04-23 01:02:00,70.3,69.0,30.07,NNW,337,2.6,3.5,95,0.00,,,0.00,Rainwise IP-100,2013-04-23 05:02:00,
2013-04-23 01:07:00,70.3,69.0,30.07,NW,315,1.9,3.5,95,0.00,,,0.00,Rainwise IP-100,2013-04-23 05:07:00,
2013-04-23 01:12:00,70.4,69.0,30.07,WNW,292,2.1,3.3,95,0.00,,,0.00,Rainwise IP-100,2013-04-23 05:12:00,
2013-04-23 01:18:00,70.4,69.0,30.06,WNW,292,1.9,3.7,95,0.00,,,0.00,Rainwise IP-100,2013-04-23 05:18:00,
2013-04-23 01:23:00,70.4,69.0,30.07,WNW,292,1.6,4.0,95,0.00,,,0.00,Rainwise IP-100,2013-04-23 05:23:00,
2013-04-23 01:28:00,70.3,69.3,30.06,WNW,292,2.3,3.0,96,0.00,,,0.00,Rainwise IP-100,2013-04-23 05:28:00,
2013-04-23 01:33:00,70.3,69.3,30.06,WNW,292,1.9,3.0,96,0.00,,,0.00,Rainwise IP-100,2013-04-23 05:33:00,
2013-04-23 01:38:00,70.3,69.3,30.06,NW,315,2.1,4.2,96,0.00,,,0.00,Rainwise IP-100,2013-04-23 05:38:00,
2013-04-23 01:43:00,70.3,69.3,30.05,NW,315,3.0,3.0,96,0.00,,,0.00,Rainwise IP-100,2013-04-23 05:43:00,
2013-04-23 01:48:00,70.2,69.0,30.05,WNW,292,1.9,4.2,96,0.00,,,0.00,Rainwise IP-100,2013-04-23 05:48:00,
2013-04-23 01:53:00,70.1,69.0,30.05,NW,315,4.9,7.5,96,0.00,,,0.00,Rainwise IP-100,2013-04-23 05:53:00,
2013-04-23 01:59:00,70.0,69.0,30.05,NNW,337,1.2,4.9,96,0.00,,,0.00,Rainwise IP-100,2013-04-23 05:59:00,
2013-04-23 02:04:00,69.9,69.0,30.05,NW,315,1.2,3.7,96,0.00,,,0.00,Rainwise IP-100,2013-04-23 06:04:00,
2013-04-23 02:09:00,69.9,69.0,30.05,NNW,337,1.4,3.3,96,0.00,,,0.00,Rainwise IP-100,2013-04-23 06:09:00,
2013-04-23 02:14:00,69.9,69.0,30.04,NNW,337,2.8,4.7,96,0.00,,,0.00,Rainwise IP-100,2013-04-23 06:14:00,
2013-04-23 02:19:00,69.9,69.0,30.04,NNW,337,4.2,4.2,96,0.00,,,0.00,Rainwise IP-100,2013-04-23 06:19:00,
2013-04-23 02:24:00,69.8,68.0,30.05,NNW,337,4.0,4.9,95,0.00,,,0.00,Rainwise IP-100,2013-04-23 06:24:00,
2013-04-23 02:29:00,69.8,68.0,30.04,NNW,337,2.1,4.2,95,0.00,,,0.00,Rainwise IP-100,2013-04-23 06:29:00,
2013-04-23 02:35:00,69.7,68.0,30.04,NNW,337,2.3,4.4,95,0.00,,,0.00,Rainwise IP-100,2013-04-23 06:35:00,
2013-04-23 02:40:00,69.6,68.0,30.03,NNW,337,3.0,4.4,95,0.00,,,0.00,Rainwise IP-100,2013-04-23 06:40:00,
2013-04-23 02:45:00,69.6,68.0,30.03,NNW,337,2.8,4.4,95,0.00,,,0.00,Rainwise IP-100,2013-04-23 06:45:00,
2013-04-23 02:50:00,69.6,68.0,30.03,NNW,337,0.0,4.2,95,0.00,,,0.00,Rainwise IP-100,2013-04-23 06:50:00,
2013-04-23 02:55:00,69.7,68.0,30.03,NNW,337,2.6,3.3,95,0.00,,,0.00,Rainwise IP-100,2013-04-23 06:55:00,
2013-04-23 03:00:00,69.7,68.0,30.03,NNW,337,1.4,3.0,95,0.00,,,0.00,Rainwise IP-100,2013-04-23 07:00:00,
2013-04-23 03:05:00,69.6,68.0,30.03,NNW,337,2.3,4.7,95,0.00,,,0.00,Rainwise IP-100,2013-04-23 07:05:00,
2013-04-23 03:10:00,69.5,68.0,30.02,NNW,337,1.9,3.7,94,0.00,,,0.00,Rainwise IP-100,2013-04-23 07:10:00,
2013-04-23 03:16:00,69.5,68.0,30.02,NNW,337,1.2,3.5,94,0.00,,,0.00,Rainwise IP-100,2013-04-23 07:16:00,
2013-04-23 03:21:00,69.6,68.0,30.02,NNW,337,1.4,2.6,94,0.00,,,0.00,Rainwise IP-100,2013-04-23 07:21:00,
2013-04-23 03:26:00,69.8,68.0,30.02,WNW,292,2.8,3.7,94,0.00,,,0.00,Rainwise IP-100,2013-04-23 07:26:00,
2013-04-23 03:31:00,69.8,68.0,30.02,WNW,292,2.8,4.9,94,0.00,,,0.00,Rainwise IP-100,2013-04-23 07:31:00,
2013-04-23 03:36:00,69.7,68.0,30.02,NNW,337,2.8,4.2,94,0.00,,,0.00,Rainwise IP-100,2013-04-23 07:36:00,
2013-04-23 03:41:00,69.7,68.0,30.02,NW,315,4.7,5.4,94,0.00,,,0.00,Rainwise IP-100,2013-04-23 07:41:00,
2013-04-23 03:46:00,69.5,68.0,30.02,NNW,337,4.2,6.1,94,0.00,,,0.00,Rainwise IP-100,2013-04-23 07:46:00,
2013-04-23 03:52:00,69.5,68.0,30.02,NNW,337,4.2,5.4,94,0.00,,,0.00,Rainwise IP-100,2013-04-23 07:52:00,
2013-04-23 03:57:00,69.5,68.0,30.02,NNW,337,4.4,5.8,94,0.00,,,0.00,Rainwise IP-100,2013-04-23 07:57:00,
2013-04-23 04:02:00,69.4,67.5,30.02,WNW,292,4.2,7.0,94,0.00,,,0.00,Rainwise IP-100,2013-04-23 08:02:00,
2013-04-23 04:07:00,69.5,68.0,30.01,NW,315,2.1,7.2,94,0.00,,,0.00,Rainwise IP-100,2013-04-23 08:07:00,
2013-04-23 04:12:00,69.4,67.5,30.02,NNW,337,4.4,5.4,94,0.00,,,0.00,Rainwise IP-100,2013-04-23 08:12:00,
2013-04-23 04:17:00,69.4,67.5,30.01,NNW,337,2.1,5.6,94,0.00,,,0.00,Rainwise IP-100,2013-04-23 08:17:00,
2013-04-23 04:22:00,69.4,67.5,30.01,NNW,337,2.1,5.6,94,0.00,,,0.00,Rainwise IP-100,2013-04-23 08:22:00,
2013-04-23 04:27:00,69.4,67.5,30.01,NW,315,1.9,4.4,94,0.00,,,0.00,Rainwise IP-100,2013-04-23 08:27:00,
2013-04-23 04:33:00,69.4,67.5,30.01,NNW,337,2.6,4.2,94,0.00,,,0.00,Rainwise IP-100,2013-04-23 08:33:00,
2013-04-23 04:38:00,69.3,67.5,30.01,NNW,337,3.5,4.7,94,0.00,,,0.00,Rainwise IP-100,2013-04-23 08:38:00,
2013-04-23 04:43:00,69.3,67.5,30.02,WNW,292,2.8,5.6,94,0.00,,,0.00,Rainwise IP-100,2013-04-23 08:43:00,
2013-04-23 04:48:00,69.4,67.5,30.02,WNW,292,2.1,4.2,94,0.00,,,0.00,Rainwise IP-100,2013-04-23 08:48:00,
2013-04-23 04:53:00,69.3,67.5,30.02,WNW,292,3.3,4.4,94,0.00,,,0.00,Rainwise IP-100,2013-04-23 08:53:00,
2013-04-23 04:58:00,69.2,67.5,30.02,NW,315,3.3,4.7,94,0.00,,,0.00,Rainwise IP-100,2013-04-23 08:58:00,
2013-04-23 05:03:00,69.2,67.5,30.02,NW,315,1.9,4.7,95,0.00,,,0.00,Rainwise IP-100,2013-04-23 09:03:00,
2013-04-23 05:09:00,69.1,67.0,30.02,WNW,292,3.0,5.8,95,0.00,,,0.00,Rainwise IP-100,2013-04-23 09:09:00,
2013-04-23 05:14:00,69.0,67.0,30.02,NNW,337,4.0,4.9,95,0.00,,,0.00,Rainwise IP-100,2013-04-23 09:14:00,
2013-04-23 05:19:00,69.0,67.0,30.02,NW,315,2.8,5.4,95,0.00,,,0.00,Rainwise IP-100,2013-04-23 09:19:00,
2013-04-23 05:24:00,68.9,67.0,30.02,NNW,337,4.4,5.1,95,0.00,,,0.00,Rainwise IP-100,2013-04-23 09:24:00,
2013-04-23 05:29:00,68.9,67.0,30.02,NNW,337,1.9,5.4,95,0.00,,,0.00,Rainwise IP-100,2013-04-23 09:29:00,
2013-04-23 05:34:00,68.9,67.0,30.02,WNW,292,3.0,6.3,95,0.00,,,0.00,Rainwise IP-100,2013-04-23 09:34:00,
2013-04-23 05:39:00,68.9,67.0,30.03,NW,315,2.8,4.4,95,0.00,,,0.00,Rainwise IP-100,2013-04-23 09:39:00,
2013-04-23 05:44:00,68.9,67.0,30.02,WNW,292,3.3,5.4,95,0.00,,,0.00,Rainwise IP-100,2013-04-23 09:44:00,
2013-04-23 05:50:00,68.8,67.0,30.02,NW,315,2.6,6.3,95,0.00,,,0.00,Rainwise IP-100,2013-04-23 09:50:00,
2013-04-23 05:55:00,68.8,67.0,30.03,WNW,292,2.3,4.4,95,0.00,,,0.00,Rainwise IP-100,2013-04-23 09:55:00,
2013-04-23 06:00:00,68.8,67.0,30.02,WNW,292,2.3,4.2,95,0.00,,,0.00,Rainwise IP-100,2013-04-23 10:00:00,
2013-04-23 06:05:00,68.8,67.0,30.03,NNW,337,4.9,4.9,95,0.00,,,0.00,Rainwise IP-100,2013-04-23 10:05:00,
2013-04-23 06:10:00,68.8,67.0,30.03,NW,315,2.1,5.4,95,0.00,,,0.00,Rainwise IP-100,2013-04-23 10:10:00,
2013-04-23 06:15:00,68.8,67.0,30.03,WNW,292,1.6,5.6,95,0.00,,,0.00,Rainwise IP-100,2013-04-23 10:15:00,
2013-04-23 06:20:00,68.7,67.0,30.03,WNW,292,2.6,5.6,96,0.00,,,0.00,Rainwise IP-100,2013-04-23 10:20:00,
2013-04-23 06:26:00,68.7,67.0,30.04,NW,315,3.0,4.4,96,0.00,,,0.00,Rainwise IP-100,2013-04-23 10:26:00,
2013-04-23 06:31:00,68.7,67.0,30.03,NW,315,2.6,5.8,96,0.00,,,0.00,Rainwise IP-100,2013-04-23 10:31:00,
2013-04-23 06:36:00,68.7,67.0,30.04,WNW,292,3.5,6.1,96,0.00,,,0.00,Rainwise IP-100,2013-04-23 10:36:00,
2013-04-23 06:41:00,68.6,67.0,30.04,NW,315,2.8,6.1,96,0.00,,,0.00,Rainwise IP-100,2013-04-23 10:41:00,
2013-04-23 06:46:00,68.6,67.0,30.04,NW,315,3.0,5.6,96,0.00,,,0.00,Rainwise IP-100,2013-04-23 10:46:00,
2013-04-23 06:51:00,68.6,67.0,30.04,NNW,337,2.1,6.1,96,0.00,,,0.00,Rainwise IP-100,2013-04-23 10:51:00,
2013-04-23 06:56:00,68.6,67.0,30.04,NW,315,3.0,4.9,96,0.00,,,0.00,Rainwise IP-100,2013-04-23 10:56:00,
2013-04-23 07:01:00,68.6,67.0,30.04,WNW,292,1.6,5.4,96,0.00,,,0.00,Rainwise IP-100,2013-04-23 11:01:00,
2013-04-23 07:07:00,68.7,67.0,30.04,WNW,292,3.7,4.9,96,0.00,,,0.00,Rainwise IP-100,2013-04-23 11:07:00,
2013-04-23 07:12:00,68.7,67.0,30.05,NW,315,2.1,4.4,96,0.00,,,0.00,Rainwise IP-100,2013-04-23 11:12:00,
2013-04-23 07:17:00,68.7,67.0,30.05,NNW,337,3.3,4.4,96,0.00,,,0.00,Rainwise IP-100,2013-04-23 11:17:00,
2013-04-23 07:22:00,68.8,67.5,30.05,NW,315,3.3,5.6,96,0.00,,,0.00,Rainwise IP-100,2013-04-23 11:22:00,
2013-04-23 07:27:00,68.8,67.5,30.05,WNW,292,2.1,5.6,96,0.00,,,0.00,Rainwise IP-100,2013-04-23 11:27:00,
2013-04-23 07:32:00,68.8,67.5,30.06,NW,315,2.8,4.4,96,0.00,,,0.00,Rainwise IP-100,2013-04-23 11:32:00,
2013-04-23 07:37:00,68.8,67.5,30.05,WNW,292,3.0,5.1,96,0.00,,,0.00,Rainwise IP-100,2013-04-23 11:37:00,
2013-04-23 07:43:00,68.9,67.5,30.05,WNW,292,1.6,5.4,96,0.00,,,0.00,Rainwise IP-100,2013-04-23 11:43:00,
2013-04-23 07:48:00,69.1,67.5,30.05,WNW,292,4.9,5.8,96,0.00,,,0.00,Rainwise IP-100,2013-04-23 11:48:00,
2013-04-23 07:53:00,69.4,68.0,30.06,WNW,292,2.1,6.5,96,0.00,,,0.00,Rainwise IP-100,2013-04-23 11:53:00,
2013-04-23 07:58:00,69.7,68.5,30.05,NNW,337,1.4,4.0,96,0.00,,,0.00,Rainwise IP-100,2013-04-23 11:58:00,
2013-04-23 08:03:00,69.8,68.5,30.06,NNW,337,1.4,5.6,96,0.00,,,0.00,Rainwise IP-100,2013-04-23 12:03:00,
2013-04-23 08:08:00,70.0,68.5,30.06,WNW,292,4.4,5.6,95,0.00,,,0.00,Rainwise IP-100,2013-04-23 12:08:00,
2013-04-23 08:13:00,70.4,69.0,30.06,NNW,337,4.0,6.5,95,0.00,,,0.00,Rainwise IP-100,2013-04-23 12:13:00,
2013-04-23 08:18:00,70.8,69.0,30.06,WNW,292,3.3,6.1,94,0.00,,,0.00,Rainwise IP-100,2013-04-23 12:18:00,
2013-04-23 08:24:00,71.3,69.3,30.06,NNW,337,1.2,4.9,94,0.00,,,0.00,Rainwise IP-100,2013-04-23 12:24:00,
2013-04-23 08:29:00,71.7,69.7,30.06,NNW,337,3.3,5.1,93,0.00,,,0.00,Rainwise IP-100,2013-04-23 12:29:00,
2013-04-23 08:34:00,72.3,70.0,30.07,NNW,337,3.3,6.8,92,0.00,,,0.00,Rainwise IP-100,2013-04-23 12:34:00,
2013-04-23 08:39:00,72.8,69.7,30.07,NW,315,1.9,5.1,90,0.00,,,0.00,Rainwise IP-100,2013-04-23 12:39:00,
2013-04-23 08:44:00,73.5,70.5,30.07,NNW,337,2.8,7.7,89,0.00,,,0.00,Rainwise IP-100,2013-04-23 12:44:00,
2013-04-23 08:49:00,74.0,70.0,30.07,NNW,337,4.7,7.2,87,0.00,,,0.00,Rainwise IP-100,2013-04-23 12:49:00,
2013-04-23 08:54:00,74.6,70.0,30.08,NNE,22,2.1,6.1,85,0.00,,,0.00,Rainwise IP-100,2013-04-23 12:54:00,
2013-04-23 09:00:00,75.3,70.0,30.07,North,360,4.9,7.9,83,0.00,,,0.00,Rainwise IP-100,2013-04-23 13:00:00,
2013-04-23 09:05:00,75.9,69.7,30.07,NNE,22,8.4,10.3,81,0.00,,,0.00,Rainwise IP-100,2013-04-23 13:05:00,
2013-04-23 09:10:00,77.2,69.7,30.08,NE,45,6.3,18.0,77,0.00,,,0.00,Rainwise IP-100,2013-04-23 13:10:00,
2013-04-23 09:15:00,78.1,69.0,30.07,NNE,22,11.7,17.3,73,0.00,,,0.00,Rainwise IP-100,2013-04-23 13:15:00,
2013-04-23 09:20:00,78.5,68.0,30.08,ENE,67,14.5,17.0,70,0.00,,,0.00,Rainwise IP-100,2013-04-23 13:20:00,
2013-04-23 09:25:00,78.8,68.0,30.08,NNE,22,12.1,14.7,70,0.00,,,0.00,Rainwise IP-100,2013-04-23 13:25:00,
2013-04-23 09:30:00,79.0,68.5,30.08,NNW,337,6.5,16.8,70,0.00,,,0.00,Rainwise IP-100,2013-04-23 13:30:00,
2013-04-23 09:35:00,79.1,68.0,30.08,NNE,22,10.7,14.7,69,0.00,,,0.00,Rainwise IP-100,2013-04-23 13:35:00,
2013-04-23 09:41:00,79.4,68.0,30.09,NE,45,9.8,16.3,68,0.00,,,0.00,Rainwise IP-100,2013-04-23 13:41:00,
2013-04-23 09:46:00,79.5,67.5,30.08,NNW,337,10.5,14.7,67,0.00,,,0.00,Rainwise IP-100,2013-04-23 13:46:00,
2013-04-23 09:51:00,80.0,68.0,30.09,NE,45,6.5,12.6,67,0.00,,,0.00,Rainwise IP-100,2013-04-23 13:51:00,
2013-04-23 09:56:00,80.0,68.0,30.09,NNE,22,8.2,15.6,67,0.00,,,0.00,Rainwise IP-100,2013-04-23 13:56:00,
2013-04-23 10:01:00,79.7,67.5,30.09,NNE,22,13.5,16.8,67,0.00,,,0.00,Rainwise IP-100,2013-04-23 14:01:00,
2013-04-23 10:06:00,79.4,67.5,30.09,NNW,337,8.9,20.5,67,0.00,,,0.00,Rainwise IP-100,2013-04-23 14:06:00,
2013-04-23 10:11:00,79.4,68.0,30.09,North,360,11.0,21.0,68,0.00,,,0.00,Rainwise IP-100,2013-04-23 14:11:00,
2013-04-23 10:17:00,79.4,68.0,30.10,NNE,22,14.7,19.4,68,0.00,,,0.00,Rainwise IP-100,2013-04-23 14:17:00,
2013-04-23 10:22:00,79.4,68.0,30.10,North,360,7.0,20.5,68,0.06,,,0.01,Rainwise IP-100,2013-04-23 14:22:00,
2013-04-23 10:27:00,79.3,68.5,30.10,NNE,22,8.6,15.6,69,0.00,,,0.01,Rainwise IP-100,2013-04-23 14:27:00,
2013-04-23 10:32:00,79.4,68.0,30.10,NNE,22,11.4,17.7,68,0.00,,,0.01,Rainwise IP-100,2013-04-23 14:32:00,
2013-04-23 10:37:00,79.7,67.0,30.10,North,360,11.2,14.9,66,0.00,,,0.01,Rainwise IP-100,2013-04-23 14:37:00,
2013-04-23 10:42:00,79.9,67.0,30.10,NNW,337,13.1,17.5,65,0.00,,,0.01,Rainwise IP-100,2013-04-23 14:42:00,
2013-04-23 10:47:00,79.9,67.0,30.10,NNE,22,7.7,16.3,65,0.00,,,0.01,Rainwise IP-100,2013-04-23 14:47:00,
2013-04-23 10:52:00,79.8,67.0,30.10,NNE,22,11.0,21.5,66,0.00,,,0.01,Rainwise IP-100,2013-04-23 14:52:00,
2013-04-23 10:58:00,79.6,67.5,30.11,NE,45,6.8,19.8,67,0.00,,,0.01,Rainwise IP-100,2013-04-23 14:58:00,
2013-04-23 11:03:00,79.6,68.0,30.11,NNE,22,7.7,16.8,68,0.00,,,0.01,Rainwise IP-100,2013-04-23 15:03:00,
2013-04-23 11:08:00,79.7,67.0,30.11,NNE,22,7.7,19.4,66,0.00,,,0.01,Rainwise IP-100,2013-04-23 15:08:00,
2013-04-23 11:13:00,79.9,67.0,30.11,NNW,337,11.9,17.0,65,0.00,,,0.01,Rainwise IP-100,2013-04-23 15:13:00,
2013-04-23 11:18:00,80.0,67.0,30.11,NNE,22,9.1,18.7,65,0.00,,,0.01,Rainwise IP-100,2013-04-23 15:18:00,
2013-04-23 11:23:00,80.0,66.7,30.11,NNE,22,10.7,15.9,64,0.00,,,0.01,Rainwise IP-100,2013-04-23 15:23:00,
2013-04-23 11:28:00,80.2,66.7,30.11,North,360,11.9,19.8,63,0.00,,,0.01,Rainwise IP-100,2013-04-23 15:28:00,
2013-04-23 11:34:00,80.1,66.3,30.12,NE,45,14.9,19.4,63,0.00,,,0.01,Rainwise IP-100,2013-04-23 15:34:00,
2013-04-23 11:39:00,80.1,66.7,30.11,NNE,22,9.6,17.3,64,0.00,,,0.01,Rainwise IP-100,2013-04-23 15:39:00,
2013-04-23 11:44:00,80.4,67.0,30.11,NNE,22,9.8,18.0,64,0.00,,,0.01,Rainwise IP-100,2013-04-23 15:44:00,
2013-04-23 11:49:00,80.2,66.7,30.11,North,360,14.9,21.2,63,0.00,,,0.01,Rainwise IP-100,2013-04-23 15:49:00,
2013-04-23 11:54:00,80.1,66.7,30.11,NNE,22,12.1,15.4,64,0.00,,,0.01,Rainwise IP-100,2013-04-23 15:54:00,
2013-04-23 11:59:00,80.1,67.5,30.12,NE,45,6.8,15.4,66,0.00,,,0.01,Rainwise IP-100,2013-04-23 15:59:00,
2013-04-23 12:04:00,80.1,67.5,30.12,NNE,22,10.5,19.6,66,0.00,,,0.01,Rainwise IP-100,2013-04-23 16:04:00,
2013-04-23 12:09:00,79.8,67.5,30.12,NNE,22,10.0,18.2,67,0.00,,,0.01,Rainwise IP-100,2013-04-23 16:09:00,
2013-04-23 12:15:00,79.4,68.0,30.11,NNW,337,5.1,23.1,68,0.00,,,0.01,Rainwise IP-100,2013-04-23 16:15:00,
2013-04-23 12:20:00,79.6,68.0,30.11,NNW,337,12.6,14.5,68,0.00,,,0.01,Rainwise IP-100,2013-04-23 16:20:00,
2013-04-23 12:25:00,80.0,68.0,30.12,NNE,22,13.5,21.0,67,0.00,,,0.01,Rainwise IP-100,2013-04-23 16:25:00,
2013-04-23 12:30:00,79.8,67.0,30.10,NE,45,14.0,19.4,66,0.00,,,0.01,Rainwise IP-100,2013-04-23 16:30:00,
2013-04-23 12:35:00,79.9,67.0,30.11,ENE,67,17.0,21.0,65,0.00,,,0.01,Rainwise IP-100,2013-04-23 16:35:00,
2013-04-23 12:40:00,80.2,67.0,30.10,NNW,337,12.1,17.7,64,0.00,,,0.01,Rainwise IP-100,2013-04-23 16:40:00,
2013-04-23 12:45:00,80.2,67.0,30.11,North,360,5.4,18.2,64,0.00,,,0.01,Rainwise IP-100,2013-04-23 16:45:00,
2013-04-23 12:51:00,80.2,66.7,30.10,NNE,22,5.6,18.9,63,0.00,,,0.01,Rainwise IP-100,2013-04-23 16:51:00,
2013-04-23 12:56:00,80.1,66.3,30.10,North,360,11.7,19.8,63,0.00,,,0.01,Rainwise IP-100,2013-04-23 16:56:00,
2013-04-23 13:01:00,80.1,66.3,30.10,NNE,22,8.9,17.3,63,0.00,,,0.01,Rainwise IP-100,2013-04-23 17:01:00,
2013-04-23 13:06:00,80.3,66.0,30.10,NNW,337,5.6,18.4,62,0.00,,,0.01,Rainwise IP-100,2013-04-23 17:06:00,
2013-04-23 13:11:00,80.4,66.0,30.10,NNE,22,12.6,20.5,61,0.00,,,0.01,Rainwise IP-100,2013-04-23 17:11:00,
2013-04-23 13:16:00,80.4,66.0,30.10,NNW,337,13.5,18.2,61,0.00,,,0.01,Rainwise IP-100,2013-04-23 17:16:00,
2013-04-23 13:21:00,80.3,66.0,30.09,North,360,10.0,18.4,62,0.00,,,0.01,Rainwise IP-100,2013-04-23 17:21:00,
2013-04-23 13:26:00,80.3,66.7,30.10,NE,45,4.2,19.8,63,0.00,,,0.01,Rainwise IP-100,2013-04-23 17:26:00,
2013-04-23 13:32:00,80.3,67.0,30.09,NNW,337,9.8,20.5,64,0.00,,,0.01,Rainwise IP-100,2013-04-23 17:32:00,
2013-04-23 13:37:00,80.3,66.7,30.10,NNW,337,15.9,17.3,63,0.00,,,0.01,Rainwise IP-100,2013-04-23 17:37:00,
2013-04-23 13:42:00,80.5,67.0,30.09,ENE,67,8.9,15.9,64,0.00,,,0.01,Rainwise IP-100,2013-04-23 17:42:00,
2013-04-23 13:47:00,80.4,67.0,30.08,NNE,22,7.2,16.3,64,0.00,,,0.01,Rainwise IP-100,2013-04-23 17:47:00,
2013-04-23 13:52:00,80.4,67.5,30.09,North,360,9.1,15.2,65,0.00,,,0.01,Rainwise IP-100,2013-04-23 17:52:00,
2013-04-23 13:57:00,80.7,68.0,30.09,NNE,22,5.4,18.2,65,0.00,,,0.01,Rainwise IP-100,2013-04-23 17:57:00,
2013-04-23 14:02:00,80.6,68.0,30.08,NE,45,9.6,18.2,66,0.00,,,0.01,Rainwise IP-100,2013-04-23 18:02:00,
2013-04-23 14:08:00,80.1,67.5,30.08,ENE,67,15.6,19.6,66,0.00,,,0.01,Rainwise IP-100,2013-04-23 18:08:00,
2013-04-23 14:13:00,79.7,67.5,30.08,NNE,22,10.5,25.4,67,0.00,,,0.01,Rainwise IP-100,2013-04-23 18:13:00,
2013-04-23 14:18:00,79.7,67.5,30.08,NNE,22,9.3,24.9,67,0.00,,,0.01,Rainwise IP-100,2013-04-23 18:18:00,
2013-04-23 14:23:00,80.0,68.5,30.08,North,360,9.3,20.5,68,0.00,,,0.01,Rainwise IP-100,2013-04-23 18:23:00,
2013-04-23 14:28:00,80.6,68.5,30.08,NNE,22,11.2,14.0,67,0.00,,,0.01,Rainwise IP-100,2013-04-23 18:28:00,
2013-04-23 14:33:00,81.0,69.0,30.08,NNE,22,12.4,20.8,66,0.00,,,0.01,Rainwise IP-100,2013-04-23 18:33:00,
2013-04-23 14:38:00,80.8,68.5,30.09,NNE,22,13.5,15.4,66,0.00,,,0.01,Rainwise IP-100,2013-04-23 18:38:00,
2013-04-23 14:43:00,80.4,68.0,30.08,NNE,22,8.6,19.6,66,0.00,,,0.01,Rainwise IP-100,2013-04-23 18:43:00,
2013-04-23 14:49:00,80.0,68.0,30.08,NNE,22,10.5,16.6,67,0.00,,,0.01,Rainwise IP-100,2013-04-23 18:49:00,
2013-04-23 14:54:00,80.2,68.0,30.08,NNW,337,14.2,18.4,66,0.00,,,0.01,Rainwise IP-100,2013-04-23 18:54:00,
2013-04-23 14:59:00,80.7,68.0,30.08,NNW,337,10.3,18.0,65,0.00,,,0.01,Rainwise IP-100,2013-04-23 18:59:00,
2013-04-23 15:04:00,80.7,67.5,30.08,ENE,67,7.0,18.7,64,0.00,,,0.01,Rainwise IP-100,2013-04-23 19:04:00,
2013-04-23 15:09:00,80.6,68.0,30.08,NNE,22,5.1,19.6,66,0.00,,,0.01,Rainwise IP-100,2013-04-23 19:09:00,
2013-04-23 15:14:00,80.5,67.5,30.07,NNE,22,11.4,23.1,65,0.00,,,0.01,Rainwise IP-100,2013-04-23 19:14:00,
2013-04-23 15:19:00,80.4,67.5,30.08,NNE,22,10.7,18.4,65,0.00,,,0.01,Rainwise IP-100,2013-04-23 19:19:00,
2013-04-23 15:25:00,80.4,67.5,30.07,NNW,337,14.5,21.9,65,0.00,,,0.01,Rainwise IP-100,2013-04-23 19:25:00,
2013-04-23 15:30:00,80.3,66.7,30.07,NE,45,16.6,22.9,63,0.00,,,0.01,Rainwise IP-100,2013-04-23 19:30:00,
2013-04-23 15:35:00,80.2,66.0,30.08,NNW,337,7.2,18.7,62,0.00,,,0.01,Rainwise IP-100,2013-04-23 19:35:00,
2013-04-23 15:40:00,80.4,66.0,30.08,NNE,22,15.6,19.8,61,0.00,,,0.01,Rainwise IP-100,2013-04-23 19:40:00,
2013-04-23 15:45:00,80.2,65.5,30.08,NNW,337,5.8,21.9,61,0.00,,,0.01,Rainwise IP-100,2013-04-23 19:45:00,
2013-04-23 15:50:00,80.3,66.7,30.07,NNE,22,20.1,20.8,63,0.00,,,0.01,Rainwise IP-100,2013-04-23 19:50:00,
2013-04-23 15:55:00,80.3,66.0,30.06,NNE,22,14.5,20.1,62,0.00,,,0.01,Rainwise IP-100,2013-04-23 19:55:00,
2013-04-23 16:00:00,80.1,66.0,30.07,NNE,22,13.3,20.5,62,0.00,,,0.01,Rainwise IP-100,2013-04-23 20:00:00,
2013-04-23 16:06:00,80.1,66.0,30.06,NE,45,8.4,20.3,62,0.00,,,0.01,Rainwise IP-100,2013-04-23 20:06:00,
2013-04-23 16:11:00,80.1,66.0,30.07,NE,45,7.9,21.5,62,0.00,,,0.01,Rainwise IP-100,2013-04-23 20:11:00,
2013-04-23 16:16:00,80.0,66.0,30.06,NNE,22,9.1,20.5,62,0.00,,,0.01,Rainwise IP-100,2013-04-23 20:16:00,
2013-04-23 16:21:00,79.9,66.0,30.07,NNE,22,8.4,22.6,62,0.00,,,0.01,Rainwise IP-100,2013-04-23 20:21:00,
2013-04-23 16:26:00,79.9,66.0,30.07,NNW,337,13.3,20.3,62,0.00,,,0.01,Rainwise IP-100,2013-04-23 20:26:00,
2013-04-23 16:31:00,79.7,65.5,30.07,North,360,12.6,22.6,62,0.00,,,0.01,Rainwise IP-100,2013-04-23 20:31:00,
2013-04-23 16:36:00,79.7,65.5,30.06,NNW,337,9.8,18.7,62,0.00,,,0.01,Rainwise IP-100,2013-04-23 20:36:00,
2013-04-23 16:42:00,79.7,65.5,30.06,NE,45,6.1,18.7,62,0.00,,,0.01,Rainwise IP-100,2013-04-23 20:42:00,
2013-04-23 16:47:00,79.2,65.5,30.06,NNE,22,11.0,23.3,62,0.00,,,0.01,Rainwise IP-100,2013-04-23 20:47:00,
2013-04-23 16:52:00,79.3,65.5,30.06,NNE,22,12.4,18.2,62,0.00,,,0.01,Rainwise IP-100,2013-04-23 20:52:00,
2013-04-23 16:57:00,79.4,65.5,30.06,North,360,12.4,21.9,62,0.00,,,0.01,Rainwise IP-100,2013-04-23 20:57:00,
2013-04-23 17:02:00,79.4,66.0,30.07,NNE,22,14.5,16.1,63,0.00,,,0.01,Rainwise IP-100,2013-04-23 21:02:00,
2013-04-23 17:07:00,79.6,66.0,30.07,NNE,22,14.9,22.2,63,0.00,,,0.01,Rainwise IP-100,2013-04-23 21:07:00,
2013-04-23 17:12:00,79.7,65.5,30.07,NNE,22,9.6,16.8,62,0.00,,,0.01,Rainwise IP-100,2013-04-23 21:12:00,
2013-04-23 17:17:00,79.4,65.5,30.06,NNE,22,9.6,23.3,62,0.00,,,0.01,Rainwise IP-100,2013-04-23 21:17:00,
2013-04-23 17:23:00,79.1,65.0,30.06,NNE,22,15.4,19.8,62,0.00,,,0.01,Rainwise IP-100,2013-04-23 21:23:00,
2013-04-23 17:28:00,78.9,65.5,30.07,NNW,337,5.6,19.8,63,0.00,,,0.01,Rainwise IP-100,2013-04-23 21:28:00,
2013-04-23 17:33:00,78.9,65.5,30.07,NE,45,7.7,20.3,63,0.00,,,0.01,Rainwise IP-100,2013-04-23 21:33:00,
2013-04-23 17:38:00,78.5,65.0,30.07,North,360,14.7,21.2,63,0.00,,,0.01,Rainwise IP-100,2013-04-23 21:38:00,
2013-04-23 17:43:00,78.2,66.0,30.08,NNW,337,10.5,14.9,65,0.00,,,0.01,Rainwise IP-100,2013-04-23 21:43:00,
2013-04-23 17:48:00,78.0,65.0,30.07,NNE,22,11.9,22.9,64,0.00,,,0.01,Rainwise IP-100,2013-04-23 21:48:00,
2013-04-23 17:53:00,78.0,65.0,30.08,NNE,22,5.4,16.1,64,0.00,,,0.01,Rainwise IP-100,2013-04-23 21:53:00,
2013-04-23 17:59:00,78.2,65.5,30.08,NNE,22,14.5,21.7,64,0.00,,,0.01,Rainwise IP-100,2013-04-23 21:59:00,
2013-04-23 18:04:00,78.3,65.0,30.07,NNW,337,6.5,16.6,63,0.00,,,0.01,Rainwise IP-100,2013-04-23 22:04:00,
2013-04-23 18:09:00,78.3,65.0,30.07,NNE,22,6.3,12.6,63,0.00,,,0.01,Rainwise IP-100,2013-04-23 22:09:00,
2013-04-23 18:14:00,78.1,64.5,30.07,NNE,22,9.3,15.6,63,0.00,,,0.01,Rainwise IP-100,2013-04-23 22:14:00,
2013-04-23 18:19:00,77.9,64.5,30.07,NNE,22,6.1,16.1,63,0.00,,,0.01,Rainwise IP-100,2013-04-23 22:19:00,
2013-04-23 18:24:00,77.7,64.0,30.07,NNE,22,12.8,16.6,63,0.00,,,0.01,Rainwise IP-100,2013-04-23 22:24:00,
2013-04-23 18:29:00,77.3,64.5,30.08,NNE,22,5.8,17.0,64,0.00,,,0.01,Rainwise IP-100,2013-04-23 22:29:00,
2013-04-23 18:34:00,77.3,64.5,30.08,NNE,22,9.6,18.0,64,0.00,,,0.01,Rainwise IP-100,2013-04-23 22:34:00,
2013-04-23 18:40:00,77.5,64.5,30.08,NNW,337,7.5,17.3,64,0.00,,,0.01,Rainwise IP-100,2013-04-23 22:40:00,
2013-04-23 18:45:00,77.3,65.0,30.08,North,360,10.3,14.9,65,0.00,,,0.01,Rainwise IP-100,2013-04-23 22:45:00,
2013-04-23 18:50:00,77.0,65.0,30.08,ENE,67,11.0,23.3,66,0.00,,,0.01,Rainwise IP-100,2013-04-23 22:50:00,
2013-04-23 18:55:00,76.8,64.0,30.08,NNE,22,10.7,18.4,65,0.00,,,0.01,Rainwise IP-100,2013-04-23 22:55:00,
2013-04-23 19:00:00,76.8,64.0,30.08,NNE,22,10.5,15.9,65,0.00,,,0.01,Rainwise IP-100,2013-04-23 23:00:00,
2013-04-23 19:05:00,76.6,64.5,30.09,NNE,22,7.5,18.0,66,0.00,,,0.01,Rainwise IP-100,2013-04-23 23:05:00,
2013-04-23 19:10:00,76.4,65.0,30.09,NNE,22,14.7,17.7,67,0.00,,,0.01,Rainwise IP-100,2013-04-23 23:10:00,
2013-04-23 19:16:00,76.3,64.0,30.09,NE,45,21.0,21.0,66,0.00,,,0.01,Rainwise IP-100,2013-04-23 23:16:00,
2013-04-23 19:21:00,76.3,63.0,30.09,NNE,22,10.3,21.0,64,0.00,,,0.01,Rainwise IP-100,2013-04-23 23:21:00,
2013-04-23 19:26:00,76.3,63.0,30.08,NE,45,13.3,18.0,64,0.00,,,0.01,Rainwise IP-100,2013-04-23 23:26:00,
2013-04-23 19:31:00,76.2,63.0,30.09,NNE,22,7.9,17.0,64,0.00,,,0.01,Rainwise IP-100,2013-04-23 23:31:00,
2013-04-23 19:36:00,76.1,63.5,30.10,NNE,22,10.5,18.2,65,0.00,,,0.01,Rainwise IP-100,2013-04-23 23:36:00,
2013-04-23 19:41:00,76.1,63.5,30.09,NNE,22,14.9,15.9,65,0.00,,,0.01,Rainwise IP-100,2013-04-23 23:41:00,
2013-04-23 19:46:00,76.0,63.5,30.10,NE,45,11.4,18.7,65,0.00,,,0.01,Rainwise IP-100,2013-04-23 23:46:00,
2013-04-23 19:51:00,76.0,63.5,30.10,NNE,22,12.8,16.6,66,0.00,,,0.01,Rainwise IP-100,2013-04-23 23:51:00,
2013-04-23 19:57:00,75.9,64.0,30.10,North,360,8.9,21.7,67,0.00,,,0.01,Rainwise IP-100,2013-04-23 23:57:00,
2013-04-23 20:02:00,75.7,63.5,30.10,NNE,22,9.6,18.7,66,0.00,,,0.01,Rainwise IP-100,2013-04-24 00:02:00,
2013-04-23 20:07:00,75.7,63.0,30.10,NNE,22,8.2,15.2,65,0.00,,,0.01,Rainwise IP-100,2013-04-24 00:07:00,
2013-04-23 20:12:00,75.7,63.5,30.10,NNE,22,4.2,16.1,66,0.00,,,0.01,Rainwise IP-100,2013-04-24 00:12:00,
2013-04-23 20:17:00,75.7,63.5,30.10,ENE,67,9.3,18.4,66,0.00,,,0.01,Rainwise IP-100,2013-04-24 00:17:00,
2013-04-23 20:22:00,75.5,63.5,30.10,NNE,22,8.6,20.3,66,0.00,,,0.01,Rainwise IP-100,2013-04-24 00:22:00,
2013-04-23 20:27:00,75.5,63.5,30.11,NNW,337,11.7,14.9,66,0.00,,,0.01,Rainwise IP-100,2013-04-24 00:27:00,
2013-04-23 20:33:00,75.6,63.0,30.11,NNE,22,6.8,18.0,65,0.00,,,0.01,Rainwise IP-100,2013-04-24 00:33:00,
2013-04-23 20:38:00,75.6,63.0,30.11,NNW,337,10.3,16.8,65,0.00,,,0.01,Rainwise IP-100,2013-04-24 00:38:00,
2013-04-23 20:43:00,75.6,63.5,30.11,NNE,22,15.9,17.5,66,0.00,,,0.01,Rainwise IP-100,2013-04-24 00:43:00,
2013-04-23 20:48:00,75.5,64.5,30.11,NE,45,7.2,20.5,68,0.00,,,0.01,Rainwise IP-100,2013-04-24 00:48:00,
2013-04-23 20:53:00,75.5,64.5,30.11,ENE,67,12.8,18.2,68,0.00,,,0.01,Rainwise IP-100,2013-04-24 00:53:00,
2013-04-23 20:58:00,75.6,64.5,30.12,NNE,22,7.9,18.9,69,0.00,,,0.01,Rainwise IP-100,2013-04-24 00:58:00,
2013-04-23 21:03:00,75.6,65.0,30.12,NNW,337,9.8,16.6,70,0.00,,,0.01,Rainwise IP-100,2013-04-24 01:03:00,
2013-04-23 21:08:00,75.5,64.0,30.12,NNE,22,8.2,17.3,67,0.00,,,0.01,Rainwise IP-100,2013-04-24 01:08:00,
2013-04-23 21:14:00,75.6,63.0,30.12,NNE,22,6.5,22.9,65,0.00,,,0.01,Rainwise IP-100,2013-04-24 01:14:00,
2013-04-23 21:19:00,75.6,63.5,30.13,NNE,22,8.6,15.9,66,0.00,,,0.01,Rainwise IP-100,2013-04-24 01:19:00,
2013-04-23 21:24:00,75.4,64.0,30.12,NE,45,13.5,18.0,67,0.00,,,0.01,Rainwise IP-100,2013-04-24 01:24:00,
2013-04-23 21:29:00,75.4,64.0,30.13,ENE,67,12.1,20.1,67,0.00,,,0.01,Rainwise IP-100,2013-04-24 01:29:00,
2013-04-23 21:34:00,75.4,64.0,30.13,NNW,337,8.9,24.2,67,0.00,,,0.01,Rainwise IP-100,2013-04-24 01:34:00,
2013-04-23 21:39:00,75.3,64.5,30.13,NNE,22,4.7,15.9,68,0.00,,,0.01,Rainwise IP-100,2013-04-24 01:39:00,
2013-04-23 21:44:00,75.4,64.5,30.13,ENE,67,12.4,19.1,68,0.00,,,0.01,Rainwise IP-100,2013-04-24 01:44:00,
2013-04-23 21:50:00,75.4,64.0,30.13,NNE,22,6.3,20.1,67,0.00,,,0.01,Rainwise IP-100,2013-04-24 01:50:00,
2013-04-23 21:55:00,75.3,64.5,30.13,NNE,22,7.2,17.0,68,0.00,,,0.01,Rainwise IP-100,2013-04-24 01:55:00,
2013-04-23 22:00:00,75.4,64.5,30.13,North,360,6.3,19.1,69,0.00,,,0.01,Rainwise IP-100,2013-04-24 02:00:00,
2013-04-23 22:05:00,75.5,64.5,30.14,NE,45,8.6,16.8,68,0.00,,,0.01,Rainwise IP-100,2013-04-24 02:05:00,
2013-04-23 22:10:00,75.6,64.0,30.13,NNW,337,11.4,15.6,67,0.00,,,0.01,Rainwise IP-100,2013-04-24 02:10:00,
2013-04-23 22:15:00,75.4,63.5,30.14,NNE,22,13.8,16.1,66,0.00,,,0.01,Rainwise IP-100,2013-04-24 02:15:00,
2013-04-23 22:20:00,75.4,63.5,30.14,NNE,22,11.2,22.6,66,0.00,,,0.01,Rainwise IP-100,2013-04-24 02:20:00,
2013-04-23 22:25:00,75.4,64.0,30.14,NE,45,9.1,17.3,67,0.00,,,0.01,Rainwise IP-100,2013-04-24 02:25:00,
2013-04-23 22:31:00,75.3,64.0,30.14,NNE,22,8.2,20.1,67,0.00,,,0.01,Rainwise IP-100,2013-04-24 02:31:00,
2013-04-23 22:36:00,75.2,63.0,30.14,NE,45,12.4,19.4,66,0.00,,,0.01,Rainwise IP-100,2013-04-24 02:36:00,
2013-04-23 22:41:00,75.2,63.5,30.15,NNE,22,2.6,16.1,67,0.00,,,0.01,Rainwise IP-100,2013-04-24 02:41:00,
2013-04-23 22:46:00,75.1,63.0,30.15,ENE,67,11.0,17.0,66,0.00,,,0.01,Rainwise IP-100,2013-04-24 02:46:00,
2013-04-23 22:51:00,75.1,63.5,30.15,NNE,22,7.5,19.1,67,0.00,,,0.01,Rainwise IP-100,2013-04-24 02:51:00,
2013-04-23 22:56:00,75.1,64.0,30.14,NNE,22,22.9,22.9,68,0.00,,,0.01,Rainwise IP-100,2013-04-24 02:56:00,
2013-04-23 23:01:00,75.1,63.5,30.15,NNE,22,7.5,22.9,67,0.00,,,0.01,Rainwise IP-100,2013-04-24 03:01:00,
2013-04-23 23:07:00,75.1,63.0,30.14,NE,45,12.6,16.3,66,0.00,,,0.01,Rainwise IP-100,2013-04-24 03:07:00,
2013-04-23 23:12:00,75.1,62.5,30.15,ENE,67,14.0,16.6,65,0.00,,,0.01,Rainwise IP-100,2013-04-24 03:12:00,
2013-04-23 23:17:00,75.1,62.5,30.15,NNE,22,6.5,20.3,65,0.00,,,0.01,Rainwise IP-100,2013-04-24 03:17:00,
2013-04-23 23:22:00,75.0,62.5,30.14,NE,45,12.8,15.9,65,0.00,,,0.01,Rainwise IP-100,2013-04-24 03:22:00,
2013-04-23 23:27:00,75.0,62.5,30.14,ENE,67,10.7,15.6,65,0.00,,,0.01,Rainwise IP-100,2013-04-24 03:27:00,
2013-04-23 23:31:00,75.0,62.5,30.14,ENE,67,9.3,14.2,65,0.00,,,0.01,Rainwise IP-100,2013-04-24 03:31:00,
2013-04-23 23:36:00,75.0,63.0,30.14,ENE,67,13.5,18.2,66,0.00,,,0.01,Rainwise IP-100,2013-04-24 03:36:00,
2013-04-23 23:41:00,75.1,62.5,30.14,NE,45,18.4,20.3,65,0.00,,,0.01,Rainwise IP-100,2013-04-24 03:41:00,
2013-04-23 23:46:00,75.1,62.5,30.14,ENE,67,11.4,18.4,65,0.00,,,0.01,Rainwise IP-100,2013-04-24 03:46:00,
2013-04-23 23:51:00,75.1,62.5,30.14,NNE,22,8.4,15.4,65,0.00,,,0.01,Rainwise IP-100,2013-04-24 03:51:00,
2013-04-23 23:56:00,75.1,63.0,30.14,NE,45,7.0,12.4,66,0.00,,,0.01,Rainwise IP-100,2013-04-24 03:56:00,